Location: Appeville
(49.3218°N, 1.3427°W)
Time: 18:22:49
(UTC+00:00)

Cosmos 1634 Rocket - Pass Details

Date: 08 December 2019
Orbit: 960 x 992 km, 82.9° (Epoch: 18 January)

Event Time Altitude Azimuth Distance (km) Brightness Sun altitude
Rises 05:35:53 0° 183° (S) 3,658 7.1 -20.4°
Reaches altitude 10° 05:38:23 10° 183° (S) 2,711 6.4 -20.0°
Maximum altitude 05:44:35 81° 97° (E) 985 4.1 -19.0°
Drops below altitude 10° 05:50:48 10° 11° (N) 2,711 6.3 -18.0°
Sets 05:53:18 0° 11° (N) 3,660 7.0 -17.6°
